TimePDT,TemperatureF,Dew PointF,Humidity,Sea Level PressureIn,VisibilityMPH,Wind Direction,Wind SpeedMPH,Gust SpeedMPH,PrecipitationIn,Events,Conditions,WindDirDegrees,DateUTC
12:55 AM,69.1,52.0,54,29.98,10.0,West,8.1,-,N/A,,Clear,280,2013-09-11 07:55:00
1:55 AM,66.9,52.0,59,29.99,10.0,WNW,6.9,-,N/A,,Clear,300,2013-09-11 08:55:00
2:55 AM,66.0,52.0,60,29.99,10.0,West,4.6,-,N/A,,Clear,280,2013-09-11 09:55:00
3:55 AM,66.0,52.0,60,30.00,10.0,NW,9.2,-,N/A,,Clear,310,2013-09-11 10:55:00
4:55 AM,64.0,52.0,65,30.01,10.0,WNW,9.2,-,N/A,,Clear,300,2013-09-11 11:55:00
5:55 AM,62.1,52.0,70,30.02,10.0,West,9.2,-,N/A,,Clear,280,2013-09-11 12:55:00
6:55 AM,61.0,52.0,72,30.04,10.0,West,4.6,-,N/A,,Clear,270,2013-09-11 13:55:00
7:55 AM,63.0,52.0,67,30.05,10.0,WNW,9.2,-,N/A,,Clear,300,2013-09-11 14:55:00
8:55 AM,66.0,53.1,63,30.06,10.0,WNW,9.2,-,N/A,,Clear,290,2013-09-11 15:55:00
9:55 AM,71.1,54.0,55,30.06,10.0,West,4.6,-,N/A,,Clear,270,2013-09-11 16:55:00
10:55 AM,73.9,53.1,48,30.05,10.0,WSW,6.9,-,N/A,,Clear,240,2013-09-11 17:55:00
11:55 AM,79.0,52.0,39,30.03,-9999.0,North,-9999.0,-,N/A,,Unknown,0,2013-09-11 18:55:00
12:02 PM,82.4,69.8,66,30.06,10.0,West,6.9,-,N/A,,Clear,270,2013-09-11 19:02:00
12:50 PM,86.0,64.4,48,30.04,10.0,West,3.5,-,N/A,,Clear,270,2013-09-11 19:50:00
12:55 PM,84.0,52.0,33,30.01,10.0,North,-9999.0,-,N/A,,Unknown,0,2013-09-11 19:55:00
1:55 PM,88.0,46.0,23,30.00,10.0,West,6.9,-,N/A,,Clear,260,2013-09-11 20:55:00
2:55 PM,89.1,46.9,23,29.98,10.0,West,6.9,-,N/A,,Clear,260,2013-09-11 21:55:00
3:55 PM,91.9,48.0,22,29.96,10.0,WSW,8.1,-,N/A,,Clear,250,2013-09-11 22:55:00
4:55 PM,91.9,48.0,22,29.95,10.0,West,8.1,-,N/A,,Clear,270,2013-09-11 23:55:00
5:55 PM,90.0,50.0,25,29.93,10.0,West,8.1,-,N/A,,Clear,260,2013-09-12 00:55:00
6:55 PM,86.0,52.0,31,29.93,10.0,West,6.9,-,N/A,,Clear,270,2013-09-12 01:55:00
7:55 PM,82.9,50.0,32,29.94,10.0,West,3.5,-,N/A,,Clear,280,2013-09-12 02:55:00
8:55 PM,78.1,50.0,37,29.96,10.0,NW,4.6,-,N/A,,Clear,310,2013-09-12 03:55:00
9:55 PM,75.9,53.1,45,29.96,10.0,West,6.9,-,N/A,,Clear,270,2013-09-12 04:55:00
10:55 PM,77.0,50.0,39,29.97,10.0,WNW,10.4,-,N/A,,Clear,290,2013-09-12 05:55:00
11:55 PM,72.0,52.0,49,29.97,10.0,West,6.9,-,N/A,,Clear,260,2013-09-12 06:55:00